Location: Lombard
(41.8800°N, 88.0080°W)
Time: 20:55:29
(UTC-05:00)

ZACube-1 - Pass Details

Date: 21 May 2022
Orbit: 581 x 662 km, 97.6° (Epoch: 29 June)

Event Time Altitude Azimuth Distance (km) Brightness Sun altitude
Rises 04:18:26 0° 21° (NNE) 2,816 ? -11.3°
Reaches altitude 10° 04:20:46 10° 31° (NNE) 1,907 ? -10.9°
Maximum altitude 04:24:32 34° 97° (E) 962 ? -10.4°
Drops below altitude 10° 04:28:18 10° 163° (SSE) 1,896 ? -9.8°
Sets 04:30:35 0° 173° (S) 2,796 ? -9.5°
